Content
SEND FEEDBACK

Daily
Averages
Monthly
Summary
Brazil

ILHEUS, BAHIA


Home > South America > Brazil > Bahia
Elevation: 16 feet     Latitude: 14 50S     Longitude: 039 02W

WEATHER
 
SELECT A DAY
Number of Records: 96,844;   Date Range: 7/16/96 - 10/21/14
 
SHARE

PRINT THIS DATA

[ ← Previous Day ]
WEATHER ALMANAC - JANUARY 23, 2013
[ Next Day → ]
[ °C ]   °F
Weather ElementAverageHighLow
Temperature79 °F84.2 °F (4:00 pm)75.2 °F (7:00 am)
Dewpoint73.5 °F75.2 °F (9:00 am)71.6 °F (7:00 am)
Humidity83.1 %94 % (7:28 am)67 % (4:00 pm)
Barometer28.99 in29.99 in (10:00 am) (7:00 pm)
Wind Speed8.9 mph16.1 mph (10:15 pm)
Weather ElementAverage
Visibility5.9 mi
Wind DirectionSSE (173.2 °)

Weather ElementTotal
Precipitation---
Cooling Degree Days14.7 (Base 65)
Growing Degree Days29.7 (Base 50)
Averaged from 28 records on January 23, 2013
WEATHER CONDITIONS BREAKOUT
WIND DIRECTION BREAKOUT
WEATHER BY HOUR - JANUARY 23, 2013
[ °C ]   °F
Local TimeTemperatureDewpointHumidityBarometerVisibilityWind DirectionWind SpeedGust SpeedPrecipitationEventsConditions
1:00 AM77.0 °F73.4 °F89 %29.98 in6.2 miSSW (210°)8.1 mphMostly Cloudy
2:00 AM77.0 °F73.4 °F89 %29.95 in6.2 miSW (220°)9.2 mphMostly Cloudy
3:00 AM77.0 °F73.4 °F89 %29.95 in6.2 miSW (230°)5.8 mphMostly Cloudy
4:00 AM77.0 °F73.0 °F84 %29.94 in12.0 miSW (230°)5.8 mphScattered Clouds
4:00 AM77.0 °F73.4 °F89 %29.92 in6.2 miSW (230°)5.8 mphMostly Cloudy
5:00 AM77.0 °F73.4 °F89 %29.95 in6.2 miWSW (250°)4.6 mphMostly Cloudy
6:00 AM77.0 °F73.4 °F89 %29.95 in6.2 miNorth (350°)2.3 mphScattered Clouds
7:00 AM75.2 °F71.6 °F89 %29.98 in3.1 miEast (100°)11.5 mphRainLight Rain
7:28 AM75.2 °F73.4 °F94 %29.98 in2.5 miESE (120°)8.1 mphRainLight Rain
8:00 AM75.2 °F71.6 °F89 %29.98 in3.1 miESE (120°)3.5 mphRainLight Rain
9:00 AM77.0 °F75.2 °F94 %29.98 in5.0 miSSW (200°)4.6 mphMostly Cloudy
10:00 AM79.0 °F74.0 °F79 %29.99 in9.0 miSE (140°)6.9 mphMostly Cloudy
10:00 AM78.8 °F73.4 °F83 %29.98 in6.2 miSE (140°)6.9 mphMostly Cloudy
11:00 AM80.6 °F73.4 °F79 %29.98 in6.2 miSE (140°)9.2 mphMostly Cloudy
12:00 PM82.4 °F73.4 °F74 %29.98 in6.2 miSE (140°)12.7 mphMostly Cloudy
1:00 PM82.4 °F73.4 °F74 %29.95 in6.2 miSSE (150°)10.4 mphMostly Cloudy
2:00 PM82.4 °F73.4 °F74 %29.95 in6.2 miSE (130°)11.5 mphMostly Cloudy
3:00 PM82.4 °F75.2 °F79 %29.92 in6.2 miSE (140°)15.0 mphMostly Cloudy
4:00 PM83.0 °F74.0 °F67 %29.91 in12.0 miSE (140°)15.0 mphPartly Cloudy
4:00 PM84.2 °F73.4 °F70 %29.89 in6.2 miSE (140°)15.0 mphScattered Clouds
5:00 PM82.4 °F73.4 °F74 %29.89 in6.2 miSE (140°)11.5 mphMostly Cloudy
6:00 PM80.6 °F73.4 °F79 %29.89 in6.2 miSE (140°)15.0 mphMostly Cloudy
8:00 PM80.6 °F73.4 °F79 %29.92 in6.2 miSSE (150°)10.4 mphMostly Cloudy
9:00 PM78.8 °F73.4 °F83 %29.95 in6.2 miSouth (180°)8.1 mphMostly Cloudy
10:00 PM79.0 °F74.0 °F82 %29.96 in3.0 miSouth (180°)6.9 mphRainLight Rain Showers
10:00 PM78.8 °F75.2 °F89 %3.1 miSouth (180°)6.9 mphRainLight Rain Showers
10:15 PM77.0 °F73.4 °F89 %29.95 in1.9 miESE (120°)16.1 mphRainRain Showers
11:00 PM77.0 °F73.4 °F89 %29.98 in3.7 miWSW (240°)3.5 mphRainLight Rain
Hourly data recorded from SBIL, located miles away from Ilheus, Bahia







STORIES FROM OUR PARTNERS